Weather reports worldwide

Advertisment
Nottingham/Watnall, United Kingdom (3354): temperature & dewpoint: 13.04.2019 00:00:00 - 19.04.2019 00:00:00 (BST)Nottingham/Watnall, United Kingdom (3354): temperature -20cm & temperature -100cm: 13.04.2019 00:00:00 - 19.04.2019 00:00:00 (BST)Nottingham/Watnall, United Kingdom (3354): wind speed & gusts: 13.04.2019 00:00:00 - 19.04.2019 00:00:00 (BST)Nottingham/Watnall, United Kingdom (3354): wind direction: 13.04.2019 00:00:00 - 19.04.2019 00:00:00 (BST)Nottingham/Watnall, United Kingdom (3354): reduced air pressure: 13.04.2019 00:00:00 - 19.04.2019 00:00:00 (BST)Nottingham/Watnall, United Kingdom (3354): visibility: 13.04.2019 00:00:00 - 19.04.2019 00:00:00 (BST)Nottingham/Watnall, United Kingdom (3354): sunshine duration: 13.04.2019 00:00:00 - 19.04.2019 00:00:00 (BST)Nottingham/Watnall, United Kingdom (3354): precipitation: 13.04.2019 00:00:00 - 19.04.2019 00:00:00 (BST)
Date & Time tt [°C] td [°C] tt -20cm [°C] tt -100cm [°C] ff [km/h] ff [kn] fx [km/h] fx [kn] dd ppp [hPa] vv [km] sd [min] rr [mm]
19.04.2019 00:00:00 8,9 6,3 - - 9 5 - - NNE 1029,2 8 0 0,0
18.04.2019 23:00:00 9,4 6,1 - - 11 6 - - NE 1028,7 7 0 0,0
18.04.2019 22:00:00 10,5 6,2 - - 13 7 - - NE 1028,0 8 0 0,0
18.04.2019 21:00:00 12,1 6,2 - - 15 8 - - ENE 1027,3 10 0 0,0
18.04.2019 20:00:00 13,8 6,2 - - 18 10 - - ENE 1026,5 11 0 0,0
18.04.2019 19:00:00 15,7 5,8 - - 18 10 - - ENE 1025,8 16 0 0,0
18.04.2019 18:00:00 17,2 6,3 - - 18 10 - - E 1025,2 12 6 0,0
18.04.2019 17:00:00 18,3 7,2 - - 16 9 - - E 1024,8 9 36 0,0
18.04.2019 16:00:00 19,0 7,2 - - 21 11 - - ENE 1024,6 8 60 0,0
18.04.2019 15:00:00 19,1 7,9 - - 21 11 - - E 1024,6 12 54 0,0
18.04.2019 14:00:00 18,1 8,1 - - 22 12 - - E 1024,8 11 42 0,0
18.04.2019 13:00:00 16,9 10,4 - - 18 10 - - ENE 1025,1 7 54 0,0
18.04.2019 12:00:00 15,3 10,3 - - 21 11 - - NE 1025,4 6 60 0,0
18.04.2019 11:00:00 13,9 10,0 - - 15 8 - - NE 1025,7 4,9 54 0,0
18.04.2019 10:00:00 11,2 9,3 10,7 9,7 13 7 - - NE 1025,9 3,6 18 0,0
18.04.2019 09:00:00 8,6 7,9 - - 9 5 - - NE 1026,0 1,8 0 0,0
18.04.2019 08:00:00 7,4 7,1 - - 9 5 - - NE 1025,8 1,0 0 0,0
18.04.2019 07:00:00 6,6 6,2 - - 9 5 - - NNE 1025,3 0,7 0 0,0
18.04.2019 06:00:00 6,8 6,1 - - 5 3 - - NNE 1024,8 1,2 0 0,0
18.04.2019 05:00:00 7,3 6,7 - - 11 6 - - NE 1024,6 1,2 0 0,0
18.04.2019 04:00:00 7,5 7,0 - - 13 7 - - ENE 1024,7 1,1 0 0,0
18.04.2019 03:00:00 7,6 7,2 - - 11 6 - - NE 1024,6 1,2 0 0,0
18.04.2019 02:00:00 7,3 6,7 - - 11 6 - - NE 1024,3 1,3 0 0,0
18.04.2019 01:00:00 7,9 7,2 - - 13 7 - - ENE 1024,2 1,6 - 0,0
18.04.2019 00:00:00 8,4 7,2 - - 13 7 - - ENE 1023,7 2,1 0 0,0
17.04.2019 23:00:00 9,3 7,4 - - 15 8 - - ENE 1023,3 3,5 0 0,0
17.04.2019 22:00:00 10,3 7,8 - - 16 9 - - ENE 1022,9 6 0 0,0
17.04.2019 21:00:00 12,1 8,2 - - 21 11 - - ENE 1022,3 8 0 0,0
17.04.2019 20:00:00 13,2 8,5 - - 15 8 - - E 1021,4 9 0 0,0
17.04.2019 19:00:00 14,2 8,4 - - 21 11 - - ENE 1020,7 11 0 0,0
17.04.2019 18:00:00 15,7 8,1 - - 22 12 - - E 1020,2 12 6 0,0
17.04.2019 17:00:00 16,1 7,7 - - 22 12 - - ENE 1020,0 9 24 0,0
17.04.2019 16:00:00 16,8 8,2 - - 18 10 - - NE 1019,9 10 36 0,0
17.04.2019 15:00:00 17,2 8,4 - - 18 10 - - ENE 1020,2 7 60 0,0
17.04.2019 14:00:00 16,4 8,7 - - 16 9 - - NE 1020,7 9 60 0,0
17.04.2019 13:00:00 15,2 7,4 - - 18 10 - - NE 1020,9 8 60 0,0
17.04.2019 12:00:00 14,5 7,3 - - 15 8 - - NE 1020,9 10 60 0,0
17.04.2019 11:00:00 11,8 6,8 - - 11 6 - - NE 1021,4 8 60 0,0
17.04.2019 10:00:00 9,5 6,8 10,0 9,5 11 6 - - NNE 1021,6 6 24 0,0
17.04.2019 09:00:00 7,7 6,1 - - 13 7 - - NNE 1021,4 4,2 0 0,0
17.04.2019 08:00:00 7,0 5,7 - - 13 7 - - NE 1021,0 4,1 0 0,0
17.04.2019 07:00:00 6,7 5,6 - - 8 4 - - NNE 1020,8 3,8 0 0,0
17.04.2019 06:00:00 6,6 5,5 - - 11 6 - - NNE 1020,4 3,5 0 0,0
17.04.2019 05:00:00 6,8 5,5 - - 9 5 - - N 1020,3 4,4 0 0,0
17.04.2019 04:00:00 7,1 5,7 - - 9 5 - - NNE 1020,3 5 0 0,0
17.04.2019 03:00:00 7,1 5,6 - - 9 5 - - NNE 1020,2 5 0 0,0
17.04.2019 02:00:00 7,2 5,6 - - 11 6 - - NE 1020,0 6 0 0,0
17.04.2019 01:00:00 7,3 5,6 - - 11 6 - - NE 1020,1 6 - 0,0
17.04.2019 00:00:00 7,4 5,5 - - 11 6 - - NE 1020,3 7 0 0,0
16.04.2019 23:00:00 7,4 5,2 - - 13 7 - - NE 1020,1 8 0 0,0
16.04.2019 22:00:00 8,1 5,0 - - 15 8 - - ENE 1019,7 9 0 0,0
16.04.2019 21:00:00 8,7 4,9 - - 18 10 - - ENE 1019,2 10 0 0,0
16.04.2019 20:00:00 9,4 4,7 - - 18 10 - - ENE 1018,4 12 0 0,0
16.04.2019 19:00:00 10,8 5,4 - - 16 9 - - ENE 1017,8 12 0 0,0
16.04.2019 18:00:00 12,7 6,1 - - 13 7 - - E 1017,2 10 0 0,0
16.04.2019 17:00:00 12,7 5,6 - - 16 9 - - ENE 1016,9 11 0 0,0
16.04.2019 16:00:00 13,0 5,1 - - 18 10 - - E 1016,7 10 0 0,0
16.04.2019 15:00:00 13,4 6,6 - - 16 9 - - ENE 1016,5 12 6 0,0
16.04.2019 14:00:00 14,0 7,3 - - 16 9 - - ENE 1016,5 15 12 0,0
16.04.2019 13:00:00 12,3 6,1 - - 15 8 - - ENE 1016,4 13 0 0,0
16.04.2019 12:00:00 11,5 6,8 - - 15 8 - - NE 1016,6 9 6 0,0
16.04.2019 11:00:00 10,4 6,2 - - 15 8 - - ENE 1016,7 8 12 0,0
16.04.2019 10:00:00 9,3 5,8 9,5 9,5 16 9 - - ENE 1016,5 8 6 0,0
16.04.2019 09:00:00 8,2 5,4 - - 11 6 - - NE 1016,2 7 0 0,0
16.04.2019 08:00:00 7,0 5,2 - - 11 6 - - NNE 1016,2 6 0 0,0
16.04.2019 07:00:00 6,2 4,9 - - 11 6 - - NE 1015,9 5 0 0,0
16.04.2019 06:00:00 5,8 4,7 - - 11 6 - - NE 1015,6 4,5 0 0,0
16.04.2019 05:00:00 5,8 4,9 - - 9 5 - - NE 1015,9 3,8 0 0,0
16.04.2019 04:00:00 5,8 5,2 - - 11 6 - - NE 1016,1 3,0 0 0,0
16.04.2019 03:00:00 5,9 5,5 - - 11 6 - - NE 1016,2 2,4 0 0,0
16.04.2019 02:00:00 5,8 5,4 - - 15 8 - - ENE 1016,7 1,7 0 0,0
16.04.2019 01:00:00 5,4 4,7 - - 13 7 - - ENE 1017,2 2,5 - 0,0
16.04.2019 00:00:00 6,0 4,8 - - 15 8 - - ENE 1017,7 3,4 0 0,0
15.04.2019 23:00:00 6,7 3,8 - - 15 8 - - E 1017,5 5 0 0,0
15.04.2019 22:00:00 7,5 2,7 - - 18 10 - - E 1017,5 8 0 0,0
15.04.2019 21:00:00 7,8 2,6 - - 21 11 - - E 1017,6 11 0 0,0
15.04.2019 20:00:00 8,8 3,0 - - 21 11 - - E 1017,3 15 0 0,0
15.04.2019 19:00:00 10,2 2,7 - - 28 15 - - E 1016,9 18 0 0,0
15.04.2019 18:00:00 11,1 2,7 - - 26 14 - - E 1017,0 19 36 0,0
15.04.2019 17:00:00 12,5 2,9 - - 26 14 - - E 1017,3 19 60 0,0
15.04.2019 16:00:00 13,1 2,2 - - 28 15 50 27 E 1017,8 19 60 0,0
15.04.2019 15:00:00 13,0 1,6 - - 28 15 46 25 SE 1018,6 7 60 0,0
15.04.2019 14:00:00 12,9 2,0 - - 28 15 46 25 SE 1019,5 16 60 0,0
15.04.2019 13:00:00 12,1 2,0 - - 26 14 46 25 ESE 1020,4 10 60 0,0
15.04.2019 12:00:00 10,6 1,7 - - 28 15 48 26 ESE 1021,4 19 54 0,0
15.04.2019 11:00:00 10,1 1,9 - - 28 15 46 25 ESE 1022,5 14 60 0,0
15.04.2019 10:00:00 9,1 2,7 8,7 9,5 24 13 - - ESE 1023,1 21 60 0,0
15.04.2019 09:00:00 7,7 3,6 - - 28 15 - - ESE 1023,5 9 54 0,0
15.04.2019 08:00:00 4,4 3,1 - - 15 8 - - E 1024,2 6 18 0,0
15.04.2019 07:00:00 2,9 2,3 - - 15 8 - - E 1024,8 4,1 0 0,0
15.04.2019 06:00:00 2,6 1,9 - - 15 8 - - E 1024,8 4,2 0 0,0
15.04.2019 05:00:00 2,8 1,9 - - 16 9 - - E 1025,1 6 0 0,0
15.04.2019 04:00:00 2,5 1,4 - - 16 9 - - E 1025,7 7 0 0,0
15.04.2019 03:00:00 2,2 0,7 - - 15 8 - - E 1026,5 8 0 0,0
15.04.2019 02:00:00 2,3 0,4 - - 15 8 - - E 1027,1 10 0 0,0
15.04.2019 01:00:00 2,6 0,0 - - 15 8 - - E 1027,4 10 - 0,0
15.04.2019 00:00:00 3,0 -0,3 - - 15 8 - - ESE 1027,4 11 0 0,0
14.04.2019 23:00:00 3,6 -0,6 - - 16 9 - - ESE 1027,1 13 0 0,0
14.04.2019 22:00:00 4,6 -0,3 - - 18 10 - - E 1027,1 20 0 0,0
14.04.2019 21:00:00 5,3 -0,8 - - 16 9 - - E 1026,6 28 0 0,0
14.04.2019 20:00:00 6,0 -0,6 - - 18 10 - - ESE 1026,3 35 0 0,0
14.04.2019 19:00:00 6,2 -0,2 - - 16 9 - - E 1026,0 35 0 0,0
14.04.2019 18:00:00 6,5 0,0 - - 22 12 - - E 1025,8 35 0 0,0
14.04.2019 17:00:00 6,5 -0,2 - - 18 10 - - E 1025,9 27 0 0,0
14.04.2019 16:00:00 6,8 -0,6 - - 18 10 - - ENE 1026,9 35 0 0,0
14.04.2019 15:00:00 7,1 -0,7 - - 18 10 - - E 1026,9 30 6 0,0
14.04.2019 14:00:00 7,2 -1,0 - - 24 13 - - E 1026,4 30 12 0,0
14.04.2019 13:00:00 6,9 -1,5 - - 26 14 - - E 1026,1 30 6 0,0
14.04.2019 12:00:00 6,0 1,2 - - 15 8 - - E 1027,2 28 0 0,0
14.04.2019 11:00:00 5,9 0,2 - - 18 10 - - E 1027,9 22 12 0,0
14.04.2019 10:00:00 4,6 0,5 8,9 9,7 15 8 - - E 1027,7 18 0 0,0
14.04.2019 09:00:00 4,2 -0,5 - - 11 6 - - ENE 1027,4 30 30 0,0
14.04.2019 08:00:00 2,7 -1,4 - - 13 7 - - ENE 1027,5 25 42 0,0
14.04.2019 07:00:00 1,9 -1,7 - - 11 6 - - NE 1027,2 30 6 0,0
14.04.2019 06:00:00 0,6 -2,1 - - 9 5 - - NE 1027,3 30 0 0,0
14.04.2019 05:00:00 -1,3 -3,7 - - 9 5 - - NE 1027,7 30 0 0,0
14.04.2019 04:00:00 -1,0 -3,3 - - 8 4 - - NE 1027,8 28 0 0,0
14.04.2019 03:00:00 -0,2 -2,5 - - 8 4 - - NE 1027,8 22 0 0,0
14.04.2019 02:00:00 -0,6 -2,6 - - 9 5 - - ENE 1028,0 18 0 0,0
14.04.2019 01:00:00 0,0 -2,2 - - 8 4 - - ENE 1028,4 18 - 0,0
14.04.2019 00:00:00 0,3 -2,4 - - 11 6 - - ENE 1028,3 28 0 0,0
13.04.2019 23:00:00 1,0 -2,3 - - 13 7 - - ENE 1028,3 20 0 0,0
13.04.2019 22:00:00 2,0 -2,4 - - 15 8 - - ENE 1028,6 35 0 0,0
13.04.2019 21:00:00 3,0 -3,2 - - 13 7 - - E 1028,6 40 0 0,0
13.04.2019 20:00:00 4,3 -2,9 - - 16 9 - - ENE 1028,3 40 30 0,0
13.04.2019 19:00:00 6,1 -3,1 - - 18 10 - - E 1028,1 25 54 0,0
13.04.2019 18:00:00 6,1 -2,1 - - 21 11 - - E 1028,0 40 6 0,0
13.04.2019 17:00:00 7,9 -3,0 - - 18 10 - - E 1027,9 26 42 0,0
13.04.2019 16:00:00 9,1 -2,3 - - 18 10 - - E 1027,8 23 30 0,0
13.04.2019 15:00:00 8,3 -0,5 - - 21 11 - - ESE 1028,6 40 18 0,0
13.04.2019 14:00:00 6,9 -0,2 - - 15 8 - - E 1029,1 26 30 0,0
13.04.2019 13:00:00 8,1 0,5 - - 18 10 - - ESE 1028,9 45 36 0,0
13.04.2019 12:00:00 6,6 -0,3 - - 24 13 - - E 1029,1 29 12 0,0
13.04.2019 11:00:00 6,9 -0,9 - - 21 11 - - E 1029,3 29 30 0,0
13.04.2019 10:00:00 6,5 -0,1 9,2 9,7 21 11 - - E 1029,8 35 60 0,0
13.04.2019 09:00:00 4,6 -0,1 - - 11 6 - - ENE 1030,0 26 60 0,0
13.04.2019 08:00:00 2,0 -1,7 - - 8 4 - - NE 1029,9 23 60 0,0
13.04.2019 07:00:00 -0,5 -2,5 - - 9 5 - - NE 1029,8 23 18 0,0
13.04.2019 06:00:00 -0,2 -2,5 - - 9 5 - - NNE 1029,6 23 0 0,0
13.04.2019 05:00:00 -0,4 -2,1 - - 9 5 - - NNE 1029,7 21 0 0,0
13.04.2019 04:00:00 -0,6 -2,7 - - 9 5 - - NE 1029,7 18 0 0,0
13.04.2019 03:00:00 0,3 -2,3 - - 8 4 - - ENE 1029,9 22 0 0,0
13.04.2019 02:00:00 0,5 -2,2 - - 9 5 - - NE 1029,9 22 0 0,0
13.04.2019 01:00:00 2,0 -1,7 - - 9 5 - - ENE 1029,6 23 - 0,0
13.04.2019 00:00:00 3,8 -0,7 - - 13 7 - - E 1029,3 30 0 0,0

tt = temperature
td = dewpoint
tt -20cm = temperature -20cm
tt -100cm = temperature -100cm
ff = wind speed
fx = gusts
dd = wind direction
ppp = reduced air pressure
vv = visibility
sd = sunshine duration
rr = precipitation

Next stations